CW4114 Weather Reports


time (UTC)temp
F
wind
direction
speed
knots
gust
knots
rain 1hr
in
rain 24hr
in
rain mn
in
humidity
%
barometer
mb
20220124095319 14 214 4.3 11.3 0.00 0.00 0.00 75 1004.1
20220124094820 14 234 6.1 11.3 0.00 0.00 0.00 75 1004.2
20220124094320 14 185 5.2 10.4 0.00 0.00 0.00 75 1004.1
20220124093820 14 240 5.2 9.6 0.00 0.00 0.00 75 1004.3
20220124093320 14 233 6.1 9.6 0.00 0.00 0.00 75 1004.2
20220124092819 14 237 4.3 9.6 0.00 0.00 0.00 74 1004.4
20220124092317 14 213 5.2 9.6 0.00 0.00 0.00 74 1004.5
20220124091817 14 221 4.3 9.6 0.00 0.00 0.00 74 1004.5
20220124091315 14 213 5.2 11.3 0.00 0.00 0.00 74 1004.6
20220124090818 14 243 5.2 11.3 0.00 0.00 0.00 74 1004.6
20220124090314 14 221 6.1 10.4 0.00 0.00 0.00 74 1004.9
20220124085814 14 217 5.2 9.6 0.00 0.00 0.00 74 1004.8
20220124085314 14 212 6.1 10.4 0.00 0.00 0.00 74 1004.8
20220124084814 14 202 4.3 10.4 0.00 0.00 0.00 73 1005.0
20220124084314 14 221 3.5 8.7 0.00 0.00 0.00 73 1005.1
20220124083814 14 223 5.2 8.7 0.00 0.00 0.00 73 1005.1
20220124083314 14 214 3.5 10.4 0.00 0.00 0.00 73 1005.1
20220124082814 14 199 4.3 10.4 0.00 0.00 0.00 73 1005.3
20220124082314 14 226 5.2 7.8 0.00 0.00 0.00 73 1005.4
20220124081818 14 212 4.3 9.6 0.00 0.00 0.00 73 1005.5
20220124081314 14 228 5.2 10.4 0.00 0.00 0.00 73 1005.6
20220124080815 14 228 3.5 10.4 0.00 0.00 0.00 73 1005.7
20220124080313 14 221 5.2 10.4 0.00 0.00 0.00 72 1005.8
20220124075813 14 255 7.0 10.4 0.00 0.00 0.00 72 1005.7
20220124075315 14 204 5.2 10.4 0.00 0.00 0.00 72 1005.9
20220124074818 14 214 5.2 10.4 0.00 0.00 0.00 72 1005.9
20220124074312 14 223 4.3 9.6 0.00 0.00 0.00 72 1005.9
20220124073813 14 268 5.2 12.2 0.00 0.00 0.00 72 1006.0
20220124073314 14 238 6.1 12.2 0.00 0.00 0.00 72 1006.1
20220124072813 14 230 6.1 12.2 0.00 0.00 0.00 72 1006.1
20220124072321 14 209 6.1 10.4 0.00 0.00 0.00 72 1006.3
20220124071816 14 224 6.1 13.0 0.00 0.00 0.00 72 1006.3
20220124071315 14 214 7.0 13.0 0.00 0.00 0.00 72 1006.3
20220124070811 14 219 5.2 13.0 0.00 0.00 0.00 72 1006.3
20220124070311 14 233 5.2 11.3 0.00 0.00 0.00 72 1006.4
20220124065811 14 195 6.1 10.4 0.00 0.00 0.00 72 1006.4
20220124065311 14 197 3.5 11.3 0.00 0.00 0.00 73 1006.4
20220124064810 14 214 4.3 11.3 0.00 0.00 0.00 72 1006.3
20220124064311 14 219 5.2 9.6 0.00 0.00 0.00 73 1006.5
20220124063811 14 216 6.1 9.6 0.00 0.00 0.00 73 1006.7
20220124063310 14 199 5.2 9.6 0.00 0.00 0.00 73 1006.8
20220124062810 14 223 4.3 9.6 0.00 0.00 0.00 73 1006.8
20220124062312 14 219 5.2 9.6 0.00 0.00 0.00 73 1006.7
20220124061810 14 213 5.2 11.3 0.00 0.00 0.00 73 1006.8
20220124061311 14 237 5.2 11.3 0.00 0.00 0.00 73 1007.0
20220124060810 14 214 5.2 10.4 0.00 0.00 0.00 73 1007.0
20220124060312 14 227 4.3 10.4 0.00 0.00 0.00 74 1007.1
20220124055810 14 275 4.3 8.7 0.00 0.00 0.00 74 1007.2
20220124055310 14 227 3.5 8.7 0.00 0.00 0.00 75 1007.2
20220124054810 13 231 4.3 8.7 0.00 0.00 0.00 75 1007.3
20220124054309 13 185 2.6 7.8 0.00 0.00 0.00 75 1007.3
20220124053809 13 264 3.5 6.1 0.00 0.00 0.00 75 1007.4
20220124053308 13 223 3.5 6.1 0.00 0.00 0.00 76 1007.5
20220124052810 13 226 2.6 6.1 0.00 0.00 0.00 76 1007.6
20220124052308 13 219 2.6 7.8 0.00 0.00 0.00 77 1007.7
20220124051810 13 216 3.5 7.8 0.00 0.00 0.00 77 1007.8
20220124051308 12 179 3.5 7.8 0.00 0.00 0.00 78 1007.7
20220124050808 12 221 3.5 6.1 0.00 0.00 0.00 78 1007.8
20220124050308 12 219 3.5 5.2 0.00 0.00 0.00 78 1007.8
20220124045808 12 234 2.6 5.2 0.00 0.00 0.00 78 1008.0
20220124045307 12 217 1.7 5.2 0.00 0.00 0.00 78 1008.0
20220124044807 12 226 2.6 5.2 0.00 0.00 0.00 79 1008.0
20220124044307 12 219 1.7 4.3 0.00 0.00 0.00 79 1008.1
20220124043807 12 241 2.6 4.3 0.00 0.00 0.00 79 1008.1
20220124043308 12 209 2.6 4.3 0.00 0.00 0.00 79 1008.1
20220124042808 12 214 1.7 3.5 0.00 0.00 0.00 79 1008.1
20220124042307 12 193 1.7 3.5 0.00 0.00 0.00 79 1008.2
20220124041807 12 221 1.7 3.5 0.00 0.00 0.00 79 1008.2
20220124041306 12 203 0.9 3.5 0.00 0.00 0.00 79 1008.2
20220124040806 13 213 1.7 2.6 0.00 0.00 0.00 78 1008.3
20220124040308 13 207 0.9 2.6 0.00 0.00 0.00 79 1008.4
20220124035807 13 210 0.9 2.6 0.00 0.00 0.00 78 1008.4
20220124035307 13 204 0.9 2.6 0.00 0.00 0.00 78 1008.5
20220124034805 13 226 0.9 2.6 0.00 0.00 0.00 78 1008.6
20220124034306 13 219 0.9 2.6 0.00 0.00 0.00 78 1008.7
20220124033805 13 216 0.9 1.7 0.00 0.00 0.00 78 1008.7
20220124033305 13 219 0.9 2.6 0.00 0.00 0.00 77 1008.7
20220124032805 13 213 1.7 2.6 0.00 0.00 0.00 77 1008.7
20220124032307 13 219 1.7 3.5 0.00 0.00 0.00 77 1008.9
20220124031804 13 226 1.7 3.5 0.00 0.00 0.00 77 1008.9
20220124031305 13 220 1.7 3.5 0.00 0.00 0.00 77 1008.8
20220124030805 13 209 0.9 2.6 0.00 0.00 0.00 77 1008.8
20220124030304 13 219 1.7 2.6 0.00 0.00 0.00 76 1008.8
20220124025807 13 224 1.7 2.6 0.00 0.00 0.00 76 1008.8
20220124025305 13 210 1.7 2.6 0.00 0.00 0.00 76 1008.8
20220124024804 13 216 0.9 2.6 0.00 0.00 0.00 76 1009.0
20220124024304 13 219 0.9 2.6 0.00 0.00 0.00 75 1009.1
20220124023805 13 230 0.9 2.6 0.00 0.00 0.00 75 1009.4
20220124023305 13 223 1.7 2.6 0.00 0.00 0.00 75 1009.5
20220124022803 14 230 1.7 2.6 0.00 0.00 0.00 75 1009.5
20220124022305 14 226 0.9 1.7 0.00 0.00 0.00 74 1009.5
20220124021806 14 237 0.9 2.6 0.00 0.00 0.00 74 1009.6
20220124021303 14 238 0.9 2.6 0.00 0.00 0.00 74 1009.7
20220124020804 14 234 0.9 1.7 0.00 0.00 0.00 74 1009.7
20220124020303 14 241 0.9 1.7 0.00 0.00 0.00 73 1009.7
20220124015804 14 231 0.9 1.7 0.00 0.00 0.00 73 1009.7
20220124015304 14 233 0.9 1.7 0.00 0.00 0.00 73 1009.6
20220124014806 14 234 0.9 3.5 0.00 0.00 0.00 73 1009.7
20220124014305 14 258 1.7 3.5 0.00 0.00 0.00 73 1009.7
20220124013803 14 248 1.7 3.5 0.00 0.00 0.00 72 1009.9
20220124013301 14 241 1.7 3.5 0.00 0.00 0.00 72 1009.9
20220124012802 14 250 1.7 3.5 0.00 0.00 0.00 72 1009.9
20220124012305 14 279 1.7 3.5 0.00 0.00 0.00 72 1010.1
20220124011803 14 262 2.6 3.5 0.00 0.00 0.00 71 1010.1
20220124011302 14 265 1.7 4.3 0.00 0.00 0.00 71 1010.2
20220124010803 15 282 2.6 4.3 0.00 0.00 0.00 71 1010.2
20220124010301 15 272 1.7 5.2 0.00 0.00 0.00 71 1010.2
20220124005803 15 271 2.6 5.2 0.00 0.00 0.00 71 1010.3
20220124005301 15 295 2.6 5.2 0.00 0.00 0.00 71 1010.3
20220124004800 15 276 2.6 4.3 0.00 0.00 0.00 71 1010.3
20220124004302 15 309 0.9 4.3 0.00 0.00 0.00 71 1010.5
20220124003803 15 275 1.7 4.3 0.00 0.00 0.00 71 1010.4
20220124003305 15 316 0.9 5.2 0.00 0.00 0.00 71 1010.5
20220124002801 15 282 1.7 5.2 0.00 0.00 0.00 71 1010.4
20220124002300 14 293 2.6 6.1 0.00 0.00 0.00 71 1010.5
20220124001759 14 257 2.6 6.1 0.00 0.00 0.00 70 1010.5
20220124001257 14 292 3.5 6.1 0.00 0.00 0.00 69 1010.5
20220124000756 14 281 1.7 3.5 0.00 0.00 0.00 69 1010.5
20220124000256 14 262 1.7 3.5 0.00 0.00 0.00 69 1010.5
20220123235756 14 264 1.7 3.5 0.00 0.00 0.00 69 1010.5
20220123235257 14 275 1.7 3.5 0.00 0.00 0.00 68 1010.6
20220123234756 14 265 1.7 3.5 0.00 0.00 0.00 68 1010.6
20220123234256 14 252 1.7 3.5 0.00 0.00 0.00 68 1010.5
20220123233758 14 259 0.9 3.5 0.00 0.00 0.00 68 1010.4
20220123233252 14 267 1.7 3.5 0.00 0.00 0.00 67 1010.4
20220123232752 14 272 1.7 3.5 0.00 0.00 0.00 67 1010.4
20220123232251 14 247 0.9 2.6 0.00 0.00 0.00 67 1010.3
20220123231752 14 244 0.9 2.6 0.00 0.00 0.00 67 1010.3
20220123231253 14 245 0.9 2.6 0.00 0.00 0.00 66 1010.3
20220123230753 14 258 1.7 3.5 0.00 0.00 0.00 66 1010.3
20220123230251 14 279 1.7 3.5 0.00 0.00 0.00 66 1010.3
20220123225751 14 282 1.7 3.5 0.00 0.00 0.00 65 1010.2
20220123225251 14 276 1.7 3.5 0.00 0.00 0.00 65 1010.2
20220123224751 14 281 1.7 4.3 0.00 0.00 0.00 65 1010.2
20220123224250 14 278 1.7 4.3 0.00 0.00 0.00 64 1010.1
20220123223751 14 283 2.6 6.1 0.00 0.00 0.00 64 1010.1
20220123223249 15 262 2.6 6.1 0.00 0.00 0.00 63 1010.0
20220123222749 15 272 2.6 6.1 0.00 0.00 0.00 63 1010.0
20220123222249 15 283 2.6 10.4 0.00 0.00 0.00 62 1010.0
20220123221752 15 227 5.2 11.3 0.00 0.00 0.00 62 1009.9
20220123221246 15 303 5.2 11.3 0.00 0.00 0.00 62 1009.9
20220123220749 15 251 6.1 12.2 0.00 0.00 0.00 62 1009.9
20220123220244 16 296 7.0 12.2 0.00 0.00 0.00 63 1009.8
20220123215746 16 274 5.2 9.6 0.00 0.00 0.00 63 1009.7
20220123215245 16 279 5.2 9.6 0.00 0.00 0.00 62 1009.8
20220123214746 16 278 5.2 9.6 0.00 0.00 0.00 63 1009.7
20220123214245 16 279 4.3 9.6 0.00 0.00 0.00 64 1009.7
20220123213745 16 298 4.3 9.6 0.00 0.00 0.00 64 1009.7
20220123213245 16 288 4.3 9.6 0.00 0.00 0.00 64 1009.7
20220123212746 16 261 3.5 6.1 0.00 0.00 0.00 65 1009.8
20220123212243 16 289 0.9 8.7 0.00 0.00 0.00 64 1009.7
20220123211743 16 305 2.6 12.2 0.00 0.00 0.00 64 1009.7
20220123211243 16 285 6.1 12.2 0.00 0.00 0.00 64 1009.8
20220123210743 16 286 4.3 9.6 0.00 0.00 0.00 64 1009.7
20220123210244 16 261 5.2 13.9 0.00 0.00 0.00 63 1009.8
20220123205742 16 272 9.6 13.9 0.00 0.00 0.00 62 1009.7
20220123205241 16 274 4.3 9.6 0.00 0.00 0.00 62 1009.7
20220123204742 17 274 5.2 11.3 0.00 0.00 0.00 62 1009.8
20220123204242 16 329 2.6 11.3 0.00 0.00 0.00 62 1009.8
20220123203744 16 257 6.1 13.9 0.00 0.00 0.00 62 1009.9
20220123203241 17 272 7.8 13.9 0.00 0.00 0.00 61 1009.9
20220123202742 17 269 7.8 13.9 0.00 0.00 0.00 60 1009.9
20220123202238 17 289 6.1 12.2 0.00 0.00 0.00 60 1010.0
20220123201739 18 338 3.5 11.3 0.00 0.00 0.00 61 1009.9
20220123201237 18 313 5.2 11.3 0.00 0.00 0.00 62 1009.9
20220123200737 17 303 3.5 9.6 0.00 0.00 0.00 61 1010.0
20220123200235 17 289 4.3 10.4 0.00 0.00 0.00 61 1010.0
20220123195735 17 274 5.2 10.4 0.00 0.00 0.00 62 1010.0
20220123195236 17 262 3.5 9.6 0.00 0.00 0.00 61 1010.0
20220123194736 17 15 5.2 13.9 0.00 0.00 0.00 61 1010.1
20220123194235 17 316 2.6 13.9 0.00 0.00 0.00 61 1010.1
20220123193735 17 286 6.1 10.4 0.00 0.00 0.00 61 1010.0
20220123193234 17 258 4.3 10.4 0.00 0.00 0.00 60 1010.2
20220123192734 17 275 3.5 8.7 0.00 0.00 0.00 61 1010.2
20220123192234 16 272 3.5 8.7 0.00 0.00 0.00 60 1010.3
20220123191732 16 299 3.5 9.6 0.00 0.00 0.00 61 1010.4
20220123191232 16 269 6.1 9.6 0.00 0.00 0.00 62 1010.4
20220123190735 16 261 2.6 7.8 0.00 0.00 0.00 62 1010.4
20220123190233 16 276 2.6 9.6 0.00 0.00 0.00 61 1010.5
20220123185729 17 258 4.3 9.6 0.00 0.00 0.00 61 1010.5
20220123185229 17 278 6.1 11.3 0.00 0.00 0.00 61 1010.6
20220123184729 18 244 3.5 11.3 0.00 0.00 0.00 62 1010.6
20220123184227 17 286 7.0 10.4 0.00 0.00 0.00 62 1010.6
20220123183728 17 281 1.7 6.1 0.00 0.00 0.00 62 1010.6
20220123183226 16 323 1.7 10.4 0.00 0.00 0.00 64 1010.7
20220123182725 16 298 4.3 10.4 0.00 0.00 0.00 63 1010.8
20220123182225 16 302 0.9 4.3 0.00 0.00 0.00 64 1010.9
20220123181726 16 312 0.9 3.5 0.00 0.00 0.00 65 1010.9
20220123181228 16 281 0.9 6.1 0.00 0.00 0.00 67 1010.9
20220123180725 15 316 1.7 6.1 0.00 0.00 0.00 70 1011.0
20220123180223 15 259 2.6 4.3 0.00 0.00 0.00 69 1011.0
20220123175723 15 255 0.0 5.2 0.00 0.00 0.00 71 1011.0
20220123175223 14 313 0.9 5.2 0.00 0.00 0.00 74 1011.1
20220123174724 14 314 0.9 5.2 0.00 0.00 0.00 74 1011.1
20220123174222 14 344 3.5 5.2 0.00 0.00 0.00 74 1011.3
20220123173722 14 322 0.9 5.2 0.00 0.00 0.00 76 1011.3
20220123173222 14 354 0.9 5.2 0.00 0.00 0.00 76 1011.5
20220123172724 14 348 1.7 4.3 0.00 0.00 0.00 75 1011.5
20220123172222 14 324 0.9 3.5 0.00 0.00 0.00 76 1011.6
20220123171722 14 336 1.7 4.3 0.00 0.00 0.00 77 1011.7
20220123171227 13 11 1.7 4.3 0.00 0.00 0.00 77 1011.8
20220123170722 13 1 1.7 4.3 0.00 0.00 0.00 77 1011.8
20220123170220 13 327 1.7 4.3 0.00 0.00 0.00 77 1011.9
20220123165721 14 37 0.9 4.3 0.00 0.00 0.00 77 1012.0
20220123165222 14 358 2.6 5.2 0.00 0.00 0.00 75 1012.0
20220123164721 15 44 2.6 5.2 0.00 0.00 0.00 78 1012.0
20220123164220 15 32 1.7 4.3 0.00 0.00 0.00 78 1012.2
20220123163719 13 35 2.6 7.8 0.00 0.00 0.00 80 1012.2
20220123163218 13 66 3.5 7.8 0.00 0.00 0.00 79 1012.2
20220123162718 13 289 1.7 4.3 0.00 0.00 0.00 80 1012.2
20220123162216 13 35 0.9 4.3 0.00 0.00 0.00 80 1012.2
20220123161717 14 82 1.7 4.3 0.00 0.00 0.00 81 1012.3
20220123161215 13 59 2.6 5.2 0.00 0.00 0.00 82 1012.3
20220123160714 13 55 2.6 5.2 0.00 0.00 0.00 82 1012.2
20220123160215 13 343 1.7 5.2 0.00 0.00 0.00 81 1012.3
20220123155714 13 42 1.7 5.2 0.00 0.00 0.00 82 1012.3
20220123155212 13 45 1.7 6.1 0.00 0.00 0.00 81 1012.3
20220123154713 13 330 0.0 8.7 0.00 0.00 0.00 82 1012.3
20220123154212 13 8 0.0 8.7 0.00 0.00 0.00 83 1012.3
20220123153710 13 56 0.9 3.5 0.00 0.00 0.00 82 1012.3
20220123153209 13 326 1.7 6.1 0.00 0.00 0.00 83 1012.4
20220123152709 13 7 3.5 7.8 0.00 0.00 0.00 83 1012.4
20220123152208 13 58 3.5 7.8 0.00 0.00 0.00 83 1012.3
20220123151709 13 21 1.7 8.7 0.00 0.00 0.00 83 1012.4
20220123151209 13 4 2.6 8.7 0.00 0.00 0.00 83 1012.3
20220123150710 13 62 2.6 7.8 0.00 0.00 0.00 82 1012.4
20220123150209 13 21 3.5 7.8 0.00 0.00 0.00 83 1012.4
20220123145707 13 162 1.7 6.1 0.00 0.00 0.00 84 1012.4
20220123145205 12 56 2.6 10.4 0.00 0.00 0.00 84 1012.5
20220123144705 12 348 2.6 10.4 0.00 0.00 0.00 84 1012.4
20220123144206 12 31 4.3 9.6 0.00 0.00 0.00 84 1012.5
20220123143707 12 40 4.3 9.6 0.00 0.00 0.00 83 1012.6
20220123143203 12 55 5.2 8.7 0.00 0.00 0.00 84 1012.6
20220123142702 12 40 2.6 8.7 0.00 0.00 0.00 84 1012.5
20220123142201 12 59 3.5 9.6 0.00 0.00 0.00 84 1012.5
20220123141706 12 5 3.5 9.6 0.00 0.00 0.00 83 1012.5
20220123141201 12 63 3.5 10.4 0.00 0.00 0.00 83 1012.5
20220123140702 12 52 4.3 10.4 0.00 0.00 0.00 82 1012.5
20220123140202 12 18 4.3 9.6 0.00 0.00 0.00 82 1012.5
20220123135702 12 329 1.7 5.2 0.00 0.00 0.00 83 1012.5
20220123135202 12 334 1.7 4.3 0.00 0.00 0.00 83 1012.5
20220123134703 12 12 2.6 5.2 0.00 0.00 0.00 83 1012.4
20220123134204 12 30 1.7 5.2 0.00 0.00 0.00 83 1012.5
20220123133703 12 353 2.6 7.8 0.00 0.00 0.00 83 1012.4
20220123133201 12 350 2.6 8.7 0.00 0.00 0.00 84 1012.5
20220123132703 12 336 2.6 9.6 0.00 0.00 0.00 84 1012.4
20220123132201 12 66 4.3 9.6 0.00 0.00 0.00 84 1012.4
20220123131701 12 61 2.6 9.6 0.00 0.00 0.00 84 1012.4
20220123131200 12 358 2.6 10.4 0.00 0.00 0.00 84 1012.3
20220123130703 12 21 5.2 11.3 0.00 0.00 0.00 84 1012.3
20220123130159 12 55 5.2 11.3 0.00 0.00 0.00 84 1012.2
20220123125700 12 27 3.5 10.4 0.00 0.00 0.00 84 1012.3
20220123125158 12 11 4.3 10.4 0.00 0.00 0.00 84 1012.2
20220123124656 12 32 3.5 9.6 0.00 0.00 0.00 84 1012.2
20220123124158 13 87 4.3 9.6 0.00 0.00 0.00 84 1012.0
20220123123659 13 344 2.6 12.2 0.00 0.00 0.00 84 1012.0
20220123123158 13 44 4.3 12.2 0.00 0.00 0.00 84 1011.9
20220123122654 12 14 3.5 11.3 0.00 0.00 0.00 83 1011.9
20220123122157 12 322 3.5 8.7 0.00 0.00 0.00 83 1011.9
20220123121652 12 58 3.5 10.4 0.00 0.00 0.00 83 1011.9
20220123121153 12 44 4.3 10.4 0.00 0.00 0.00 83 1011.8
20220123120655 12 358 3.5 14.8 0.00 0.00 0.00 83 1011.8
20220123120153 13 14 5.2 14.8 0.00 0.00 0.00 83 1011.8
20220123115654 13 69 4.3 12.2 0.00 0.00 0.00 83 1011.8
20220123115154 13 24 7.0 12.2 0.00 0.00 0.00 84 1011.6
20220123114653 13 0 5.2 10.4 0.00 0.00 0.00 83 1011.7
20220123114152 13 61 4.3 9.6 0.00 0.00 0.00 82 1011.6
20220123113653 13 4 3.5 8.7 0.00 0.00 0.00 81 1011.6
20220123113152 13 18 3.5 8.7 0.00 0.00 0.00 82 1011.6
20220123112649 13 355 1.7 6.1 0.00 0.00 0.00 81 1011.5
20220123112151 13 41 1.7 8.7 0.00 0.00 0.00 81 1011.5
20220123111646 13 14 5.2 10.4 0.00 0.00 0.00 81 1011.5
20220123111144 13 5 3.5 10.4 0.00 0.00 0.00 81 1011.5
20220123110643 13 329 3.5 8.7 0.00 0.00 0.00 82 1011.5
20220123110143 13 45 5.2 13.0 0.00 0.00 0.00 82 1011.4
20220123105643 13 40 4.3 13.0 0.00 0.00 0.00 83 1011.4
20220123105146 13 357 5.2 10.4 0.00 0.00 0.00 83 1011.3
20220123104641 13 25 4.3 10.4 0.00 0.00 0.00 84 1011.3
20220123104142 13 345 2.6 10.4 0.00 0.00 0.00 84 1011.3
20220123103642 13 27 4.3 12.2 0.00 0.00 0.00 84 1011.1
20220123103141 13 330 4.3 12.2 0.00 0.00 0.00 84 1011.2
20220123102641 13 354 3.5 10.4 0.00 0.00 0.00 85 1011.1
20220123102139 13 31 5.2 12.2 0.00 0.00 0.00 84 1011.1
20220123101639 14 2 5.2 12.2 0.00 0.00 0.00 85 1011.0
20220123101138 14 40 5.2 13.0 0.00 0.00 0.00 85 1011.0
20220123100639 14 24 5.2 13.0 0.00 0.00 0.00 85 1010.9
20220123100138 14 37 3.5 13.0 0.00 0.00 0.00 85 1010.9
20220123095639 14 25 6.1 13.0 0.00 0.00 0.00 85 1010.8